ATLAS 5 CENTAUR DEB, 44687

Orbit data source: Space-Track

ATLAS 5 CENTAUR DEB, 44687 is space debris in HEO originally from a launch on Wed, 17 Oct 2018 UTC launched from the Air Force Eastern Test Range (AFETR). Debris objects in space refer to the collection of defunct objects orbiting the Earth. Examples of debris include non-operational satellites, rocket bodies, and fragments generated from explosions, collisions, or faulty payload assembly.

Loading next visibility...
Identifier
44687, 2018-079AZ
Orbit
HEO
Country
Flag of USUS
Related business
Flag of USUnited Launch Alliance/Lockheed Martin (US)
Manufacturer
ULA Decatur
Mission
Spacecraft
Bus & Motor
Unknown
Mass
Unknown
Launch date (UTC)
2018-10-17 (8 years ago)
Launch vehicle
Unknown
Launch site
Air Force Eastern Test Range (AFETR)
Object type
Payload
Rocket body
Debris
Shape & HBR
Unknown shape, 1.1 m
Radar Cross Section
Medium (>0.1 m² and <1 m²)

Expand to show TLE details & history
Last TLE update: 1 month ago

TLE from 1 month ago
0 ATLAS 5 CENTAUR DEB
1 44687U 18079AZ  26205.34233262 -.00000153  00000-0  00000-0 0  9994
2 44687  13.2855  34.9601 4629485 316.8272  14.8382  1.82180759 46833
Epoch: 2026-07-24T08:12Z
TLE epoch observation values (Epoch: 2026-07-24T08:12:57.538Z)
Latitude
0.00006°
Longitude
-30.33031°
Altitude
10,276.261 km
Speed
5.813 km/s
True Right ascension
02h 19m 55s
True Declination
0° 00' 00"
Sunlit
Object was in daylight at epoch
Visualization orbit readout
Latitude
Unknown
Longitude
Unknown
Altitude
Unknown
Speed
Unknown
Apparent Right ascension
Unknown
Apparent Declination
Unknown
Sunlit
N/A
Visualization observer readout
Local Sidereal Time
12:29:04
Azimuth
Unknown
Elevation
Unknown
Doppler factor
Unknown
Orbital elements
Apogee altitude
35,053.079 km
Perigee altitude
8,831.35 km
Semi-major axis
28,320.351 km
Eccentricity
0.46295
Inclination
13.2855°
RAAN
34.9601°
Arg. of periapsis
316.8272°
True anomaly
42.92329°
Mean anomaly
14.8382°
Eccentric anomaly
26.79612°
Mean motion
0.4554 °/min
Orbital period
790.51 mins
BSTAR
0
Loading maneuver chart data...
Computing Atmospheric mass density...

Documentation

Showing up to 5 results
|